Weather in Nel'min Nos

Russia / Nenets Autonomous Okrug     67°58′52″N   52°57′23″E
temp.,
°C
wind,
m/s
gust,
m/s
humid.,
%
clouds,
%
prec.,
mm/h
press.,
hPa
HPBL,
m
13 may, thu
thu1300:000n128829 0.0 102625
03:00+1se2284100 0.0 102678
06:00+3sse3576100 0.0 1026321
09:00+4se4879100 0.1 1023403
12:00+8sse686898 0.0 1020601
15:00+11sse4868100 0.0 1016209
18:00+15wsw3370100 0.0 101237
21:00+10wnw4885100 0.0 1012129
14 may, fri
fri1400:00+7wnw499199 0.0 1012175
03:00+6nw3785100 0.0 1013200
06:00+7n237899 0.0 1013193
09:00+8nnw4476100 0.0 1013320
12:00+5n4588100 0.1 1014261
15:00+4nne4693100 2.4 1015286
18:00+3nne5792100 1.1 1015378
21:00+1ne6990100 1.1 1017434
15 may, sat
sat1500:00−1ne61093100 0.0 1018377
03:00−1ne7985100 0.0 1020506
06:000ne6778100 0.0 1020661
09:00+1ne5671100 0.0 1021773
12:00+3ne5563100 0.0 1021835
15:00+2ne5565100 0.0 1022684
18:00+1ne6668100 0.0 1021545
21:00−1ne5876100 0.0 1021344
16 may, sun
sun1600:00−1ene5979100 0.0 1020310
03:00−1ene5976100 0.0 1019334
06:00+1ene785997 0.0 1018522
09:00+4ene7848100 0.0 1015798
12:00+6ene7838100 0.0 10141103
15:00+4ne9105263 0.0 1013744
18:00+1ne9116566 0.0 1014438
21:00−1ne712715 0.0 1014432
17 may, mon
mon1700:00−2ne713725 0.0 1016457
03:00−2nne610815 0.0 1018455
06:000nne67575 0.0 1019621
09:00+3nne56450 0.0 1021924
12:00+4nne66445 0.0 10221057
15:00+3ne5546100 0.0 1025962
18:00+2ne555166 0.0 1026741
21:000ene456940 0.0 1027337